Вернуться в каталог

STARLINK-11298

АктивенСвязьVLEO
NORAD 61211·PAYLOAD·🇺🇸 United States

Запущен Sep 20, 2024 с Vandenberg Space Force Base

Loading…

Ближайшие Пролёты (ближайшие 24 часа)

TLE

СвежийSource: CelesTrak SupGP

Эпоха: Sep 15, 2026, 03:36 UTC

1 61211C 24171M   26258.15048611  .00056044  00000+0  46153-3 0  2583
2 61211  53.1563 322.5853 0001266  83.4489 203.1606 15.69687584    13

Отслеживайте STARLINK-11298 в реальном времени с AllMySat

Download on the App Store